Cumberland, WV

5:58 AM EDT on April 25, 2018 (GMT -0400)
Greater Cumberland Regional

Weather History for KCBE - March, 2013

Change the Weather History Date:

Saturday, March 30, 2013

  Actual Average (KMRB) Record (KMRB)
Temperature  
Mean Temperature 42 °F -  
Max Temperature 57 °F 59 °F 86 °F (1986)
Min Temperature 28 °F 38 °F 15 °F (1970)
Degree Days  
Heating Degree Days 22    
Moisture  
Dew Point 26 °F    
Average Humidity 59    
Maximum Humidity 100    
Minimum Humidity 25    
Precipitation  
Precipitation 0.00 in - - ()
Sea Level Pressure  
Sea Level Pressure 30.20 in    
Wind  
Wind Speed 1 mph (North)    
Max Wind Speed 9 mph    
Max Gust Speed -    
Visibility 10 miles    
Events      
Averages and records for this station are not official NWS values.
T = Trace of Precipitation, MM = Missing Value Source: NWS Daily Summary

Daily Weather History Graph

Daily Weather History Graph

Search for Another Location

Airport or City:

Astronomy

Mar. 30, 2013 Rise Set
Actual Time 7:02 AM EDT 7:37 PM EDT
Civil Twilight 6:35 AM EDT 8:04 PM EDT
Nautical Twilight 6:03 AM EDT 8:36 PM EDT
Astronomical Twilight 5:30 AM EDT 9:09 PM EDT
Moon 11:41 PM EDT (3/30) 8:56 AM EDT (3/30)
Length of Visible Light 13h 29m
Length of Day
12h 35m
Waning Gibbous, 86% of the Moon is Illuminated
Mar 30
Waning Gibbous
Apr 3
Last Quarter
Apr 10
New
Apr 18
First Quarter
Apr 25
Full

Hourly Weather History & Observations

Time (EDT) Temp. Windchill Dew Point Humidity Pressure Visibility Wind Dir Wind Speed Gust Speed Precip Events Conditions
12:12 AM 37.4 °F 34.9 °F 30.2 °F 75% 30.24 in 10.0 mi North 3.5 mph - N/A   Mostly Cloudy
12:32 AM 35.6 °F - 30.2 °F 81% 30.24 in 10.0 mi Calm Calm - N/A   Mostly Cloudy
12:52 AM 35.6 °F - 28.4 °F 75% 30.24 in 10.0 mi Calm Calm - N/A   Mostly Cloudy
1:12 AM 35.6 °F - 30.2 °F 81% 30.24 in 10.0 mi Calm Calm - N/A   Mostly Cloudy
1:32 AM 35.6 °F - 30.2 °F 81% 30.24 in 10.0 mi Calm Calm - N/A   Scattered Clouds
1:52 AM 33.8 °F - 30.2 °F 87% 30.24 in 10.0 mi Calm Calm - N/A   Clear
2:12 AM 33.8 °F - 30.2 °F 87% 30.24 in 10.0 mi Calm Calm - N/A   Clear
2:32 AM 33.8 °F - 30.2 °F 87% 30.24 in 10.0 mi Calm Calm - N/A   Clear
2:52 AM 32.0 °F - 28.4 °F 87% 30.24 in 10.0 mi Calm Calm - N/A   Scattered Clouds
3:12 AM 32.0 °F 28.7 °F 28.4 °F 87% 30.24 in 10.0 mi North 3.5 mph - N/A   Scattered Clouds
3:32 AM 32.0 °F 28.7 °F 28.4 °F 87% 30.23 in 10.0 mi NE 3.5 mph - N/A   Scattered Clouds
3:52 AM 32.0 °F - 30.2 °F 93% 30.23 in 10.0 mi Calm Calm - N/A   Scattered Clouds
4:12 AM 32.0 °F 28.7 °F 30.2 °F 93% 30.23 in 10.0 mi NE 3.5 mph - N/A   Clear
4:32 AM 32.0 °F - 28.4 °F 87% 30.23 in 10.0 mi Calm Calm - N/A   Scattered Clouds
4:52 AM 30.2 °F - 30.2 °F 100% 30.24 in 10.0 mi Calm Calm - N/A   Clear
5:12 AM 30.2 °F - 28.4 °F 93% 30.23 in 10.0 mi Calm Calm - N/A   Clear
5:32 AM 30.2 °F - 28.4 °F 93% 30.23 in 10.0 mi Calm Calm - N/A   Clear
5:52 AM 30.2 °F - 28.4 °F 93% 30.24 in 10.0 mi Calm Calm - N/A   Clear
6:12 AM 30.2 °F - 28.4 °F 93% 30.24 in 10.0 mi Calm Calm - N/A   Clear
6:33 AM 30.2 °F - 28.4 °F 93% 30.25 in 10.0 mi Calm Calm - N/A   Clear
6:53 AM 28.4 °F - 28.4 °F 100% 30.25 in 10.0 mi Calm Calm - N/A   Clear
7:13 AM 28.4 °F - 28.4 °F 100% 30.26 in 10.0 mi Calm Calm - N/A   Clear
7:33 AM 30.2 °F - 28.4 °F 93% 30.27 in 10.0 mi Calm Calm - N/A   Clear
7:53 AM 30.2 °F - 28.4 °F 93% 30.27 in 10.0 mi Calm Calm - N/A   Clear
8:13 AM 30.2 °F - 28.4 °F 93% 30.27 in 10.0 mi Calm Calm - N/A   Clear
8:33 AM 32.0 °F - 30.2 °F 93% 30.28 in 10.0 mi Calm Calm - N/A   Clear
8:53 AM 32.0 °F - 30.2 °F 93% 30.28 in 10.0 mi Calm Calm - N/A   Clear
9:13 AM 33.8 °F - 32.0 °F 93% 30.29 in 10.0 mi Calm Calm - N/A   Clear
9:33 AM 37.4 °F - 32.0 °F 81% 30.29 in 10.0 mi Calm Calm - N/A   Clear
9:53 AM 41.0 °F - 32.0 °F 70% 30.28 in 10.0 mi Calm Calm - N/A   Clear
10:13 AM 42.8 °F - 32.0 °F 66% 30.28 in 10.0 mi Calm Calm - N/A   Clear
10:33 AM 44.6 °F - 28.4 °F 53% 30.27 in 10.0 mi Calm Calm - N/A   Clear
10:53 AM 46.4 °F - 28.4 °F 50% 30.27 in 10.0 mi Calm Calm - N/A   Clear
11:13 AM 46.4 °F - 28.4 °F 50% 30.26 in 10.0 mi Calm Calm - N/A   Clear
11:33 AM 50.0 °F - 26.6 °F 40% 30.25 in 10.0 mi Calm Calm - N/A   Clear
11:53 AM 50.0 °F - 28.4 °F 43% 30.25 in 10.0 mi East 4.6 mph - N/A   Clear
12:13 PM 51.8 °F - 28.4 °F 41% 30.24 in 10.0 mi North 3.5 mph - N/A   Clear
12:33 PM 51.8 °F - 28.4 °F 41% 30.23 in 10.0 mi East 4.6 mph - N/A   Clear
12:53 PM 51.8 °F - 28.4 °F 41% 30.22 in 10.0 mi NNW 4.6 mph - N/A   Clear
1:13 PM 51.8 °F - 26.6 °F 38% 30.20 in 10.0 mi ENE 3.5 mph - N/A   Clear
1:33 PM 53.6 °F - 26.6 °F 35% 30.20 in 10.0 mi Calm Calm - N/A   Clear
1:53 PM 53.6 °F - 21.2 °F 28% 30.18 in 10.0 mi West 5.8 mph - N/A   Clear
2:13 PM 53.6 °F - 23.0 °F 30% 30.18 in 10.0 mi North 4.6 mph - N/A   Clear
2:33 PM 53.6 °F - 21.2 °F 28% 30.18 in 10.0 mi North 5.8 mph - N/A   Clear
2:53 PM 55.4 °F - 23.0 °F 29% 30.17 in 10.0 mi NNW 4.6 mph - N/A   Clear
3:14 PM 55.4 °F - 23.0 °F 29% 30.18 in 10.0 mi Calm Calm - N/A   Clear
3:34 PM 55.4 °F - 23.0 °F 29% 30.17 in 10.0 mi North 4.6 mph - N/A   Clear
3:54 PM 57.2 °F - 23.0 °F 27% 30.15 in 10.0 mi West 9.2 mph - N/A   Clear
4:14 PM 57.2 °F - 21.2 °F 25% 30.15 in 10.0 mi West 6.9 mph - N/A   Clear
4:34 PM 55.4 °F - 21.2 °F 26% 30.14 in 10.0 mi Calm Calm - N/A   Clear
4:54 PM 55.4 °F - 21.2 °F 26% 30.14 in 10.0 mi Calm Calm - N/A   Clear
5:14 PM 57.2 °F - 21.2 °F 25% 30.14 in 10.0 mi WNW 8.1 mph - N/A   Clear
5:34 PM 55.4 °F - 21.2 °F 26% 30.14 in 10.0 mi NW 4.6 mph - N/A   Clear
5:54 PM 55.4 °F - 21.2 °F 26% 30.13 in 10.0 mi North 4.6 mph - N/A   Clear
6:14 PM 55.4 °F - 21.2 °F 26% 30.12 in 10.0 mi NNW 3.5 mph - N/A   Clear
6:34 PM 53.6 °F - 23.0 °F 30% 30.13 in 10.0 mi Calm Calm - N/A   Clear
6:54 PM 53.6 °F - 19.4 °F 26% 30.13 in 10.0 mi Calm Calm - N/A   Clear
7:14 PM 53.6 °F - 19.4 °F 26% 30.13 in 10.0 mi Calm Calm - N/A   Clear
7:34 PM 53.6 °F - 19.4 °F 26% 30.13 in 10.0 mi Calm Calm - N/A   Clear
7:54 PM 51.8 °F - 21.2 °F 30% 30.13 in 10.0 mi Calm Calm - N/A   Clear
8:14 PM 50.0 °F - 21.2 °F 32% 30.13 in 10.0 mi NE 3.5 mph - N/A   Clear
8:34 PM 50.0 °F - 21.2 °F 32% 30.13 in 10.0 mi Calm Calm - N/A   Clear
8:54 PM 48.2 °F - 23.0 °F 37% 30.13 in 10.0 mi NNW 4.6 mph - N/A   Clear
9:14 PM 46.4 °F 44.3 °F 23.0 °F 40% 30.13 in 10.0 mi NNW 4.6 mph - N/A   Clear
9:34 PM 44.6 °F 42.2 °F 23.0 °F 43% 30.13 in 10.0 mi NNW 4.6 mph - N/A   Clear
9:54 PM 42.8 °F - 26.6 °F 53% 30.14 in 10.0 mi Calm Calm - N/A   Clear
10:14 PM 41.0 °F - 26.6 °F 57% 30.14 in 10.0 mi Calm Calm - N/A   Clear
10:34 PM 41.0 °F - 26.6 °F 57% 30.13 in 10.0 mi Calm Calm - N/A   Clear
10:54 PM 41.0 °F 39.0 °F 26.6 °F 57% 30.13 in 10.0 mi North 3.5 mph - N/A   Clear
11:14 PM 39.2 °F - 26.6 °F 61% 30.13 in 10.0 mi Calm Calm - N/A   Clear
11:35 PM 37.4 °F - 26.6 °F 65% 30.12 in 10.0 mi Calm Calm - N/A   Clear
11:55 PM 37.4 °F 34.9 °F 26.6 °F 65% 30.12 in 10.0 mi NNE 3.5 mph - N/A   Clear